Flag for Faroe Islands Weather past 2 weeks in Tórshavn, Faroe Islands, Faroe Islands

39 °F

Partly sunny.

Feels Like: 34 °F
Forecast: 36 / 41 °F
Wind: 8 mph from Northwest

Location: Soervaag / Vagar

Current Time: Nov 25, 2015 at 12:33:05 PM

Latest Report: Nov 25, 2015 at 11:50 AM

Visibility: N/A

Pressure: 29.71 "Hg

Humidity: 70%

Dew point: 30 °F

Location of TórshavnLocation

Historic Weather in Tórshavn — Graph


Tórshavn temperature yesterday

Maximum temperature yesterday: 43 °F (at 12:20 AM)
Minimum temperature yesterday: 37 °F (at 6:20 PM)
Average temperature yesterday: 41 °F

Past Weeks' High & Low Weather Summary

High48 °F (Nov 12, 6:50 PM)100% (Nov 15, 4:50 AM)30.07 "Hg (Nov 15, 4:50 AM)
Low28 °F (Nov 21, 2:50 AM)51% (Nov 20, 9:20 PM)28.56 "Hg (Nov 13, 2:20 AM)
Average41 °F81%29.38 "Hg
* Reported Nov 10 11:20 AM — Nov 25 11:22 AM, Tórshavn, Weather by CustomWeather, © 2015

Note: Actual official high and low records may vary slightly from our data, if they occured in-between our weather recording intervals... More about our weather records


Tórshavn weather history for previous 24 hours

Time TempWeatherWind HumidityBarometerVisibility
11:22 AM
Wed, Nov 25
39 °FPartly sunny.8 mph70%29.68 "HgN/A
9:50 AM39 °FScattered clouds.10 mph65%29.68 "HgN/A
9:20 AM39 °FScattered clouds.14 mph65%29.65 "HgN/A
8:50 AM39 °FPassing clouds.13 mph65%29.65 "HgN/A
8:20 AM39 °FPassing clouds.13 mph65%29.65 "HgN/A
7:20 AM37 °FPassing clouds.14 mph70%29.62 "HgN/A
6:50 AM39 °FPassing clouds.15 mph65%29.59 "HgN/A
6:20 AM39 °FPassing clouds.15 mph65%29.59 "HgN/A
5:50 AM39 °FPassing clouds.17 mph65%29.59 "HgN/A
5:20 AM39 °FPassing clouds.18 mph65%29.56 "HgN/A
4:50 AM39 °FChilly.21 mph61%29.56 "HgN/A
4:20 AM39 °FPassing clouds.20 mph61%29.53 "HgN/A
3:20 AM41 °FPassing clouds.18 mph66%29.50 "HgN/A
2:50 AM39 °FPassing clouds.15 mph65%29.50 "HgN/A
2:20 AM37 °FPassing clouds.15 mph87%29.50 "HgN/A
1:50 AM39 °FChilly.20 mph75%29.50 "HgN/A
1:20 AM39 °FChilly.16 mph65%29.47 "HgN/A
12:20 AM39 °FPassing clouds.14 mph61%29.47 "HgN/A
11:50 PM
Tue, Nov 24
39 °FPassing clouds.15 mph65%29.45 "HgN/A
11:20 PM39 °FPassing clouds.21 mph61%29.45 "HgN/A
10:50 PM39 °FPassing clouds.20 mph61%29.45 "HgN/A
10:20 PM39 °FPassing clouds.16 mph61%29.45 "HgN/A
9:50 PM39 °FPassing clouds.20 mph56%29.42 "HgN/A
9:20 PM39 °FOvercast.21 mph65%29.42 "HgN/A
8:50 PM41 °FPassing clouds.22 mph61%29.42 "HgN/A
8:20 PM39 °FPassing clouds.18 mph65%29.39 "HgN/A
7:50 PM39 °FPassing clouds.18 mph65%29.39 "HgN/A
7:20 PM39 °FPassing clouds.20 mph65%29.39 "HgN/A
6:50 PM39 °FSprinkles. Passing clouds.18 mph70%29.36 "HgN/A
6:20 PM37 °FPassing clouds.17 mph75%29.36 "HgN/A
5:50 PM39 °FPassing clouds.20 mph65%29.33 "HgN/A
5:20 PM39 °FPassing clouds.18 mph65%29.33 "HgN/A
4:50 PM39 °FPassing clouds.22 mph61%29.33 "HgN/A
4:20 PM39 °FPassing clouds.22 mph65%29.30 "HgN/A
3:50 PM39 °FPartly cloudy.21 mph70%29.30 "HgN/A
3:20 PM41 °FPartly sunny.21 mph66%29.27 "HgN/A
2:50 PM41 °FPartly sunny.17 mph66%29.27 "HgN/A
2:20 PM39 °FSprinkles. Partly sunny.17 mph75%29.27 "HgN/A
1:50 PM41 °FSprinkles. Partly sunny.23 mph66%29.24 "HgN/A
1:20 PM41 °FPartly sunny.20 mph70%29.21 "HgN/A
12:50 PM41 °FPartly sunny.23 mph70%29.21 "HgN/A
12:20 PM41 °FPartly sunny.23 mph76%29.18 "HgN/A
Weather by CustomWeather, © 2015

See weather overviewHow to use our weather pages